FW8306 Weather Reports


Display with metric or nautical units.
time (UTC)temp
F
wind
direction
speed
MPH
gust
MPH
rain 1hr
in
rain 24hr
in
rain mn
in
humidity
%
barometer
mb
20260906153100 65 0.0 0.0 0.00 0.00 0.00 63 1023.1
20260906151557 65 0.0 0.0 0.00 0.00 0.00 62 1023.0
20260906150104 66 0.0 0.0 0.00 0.00 0.00 62 1022.9
20260906144606 66 0.0 0.0 0.00 0.00 0.00 62 1023.0
20260906143059 66 0.0 0.0 0.00 0.00 0.00 61 1023.0
20260906141614 66 0.0 0.0 0.00 0.00 0.00 60 1022.8
20260906134605 65 0.0 0.0 0.00 0.00 0.00 63 1022.8
20260906133107 65 0.0 0.0 0.00 0.00 0.00 61 1022.9
20260906131608 65 0.0 0.0 0.00 0.00 0.00 61 1022.9
20260906130111 66 0.0 0.0 0.00 0.00 0.00 63 1023.0
20260906124557 67 0.0 0.0 0.00 0.00 0.00 64 1022.9
20260906123103 67 0.0 0.0 0.00 0.00 0.00 64 1022.9
20260906121610 66 0.0 0.0 0.00 0.00 0.00 66 1022.8
20260906120057 67 0.0 0.0 0.00 0.00 0.00 65 1022.8
20260906114611 67 0.0 0.0 0.00 0.00 0.00 66 1022.7
20260906113101 66 0.0 0.0 0.00 0.00 0.00 67 1022.6
20260906111558 65 0.0 0.0 0.00 0.00 0.00 70 1022.6
20260906110104 64 0.0 0.0 0.00 0.00 0.00 70 1022.5
20260906104602 65 0.0 0.0 0.00 0.00 0.00 70 1022.3
20260906103105 65 0.0 0.0 0.00 0.00 0.00 70 1022.2
20260906101603 65 0.0 0.0 0.00 0.00 0.00 69 1022.0
20260906094601 64 0.0 0.0 0.00 0.00 0.00 71 1021.5
20260906093105 63 0.0 0.0 0.00 0.00 0.00 71 1021.4
20260906091603 63 0.0 0.0 0.00 0.00 0.00 71 1021.3
20260906090109 64 0.0 0.0 0.00 0.00 0.00 71 1021.1
20260906084606 63 0.0 0.0 0.00 0.00 0.00 73 1021.1
20260906083102 62 0.0 0.0 0.00 0.00 0.00 75 1021.0
20260906081619 62 0.0 0.0 0.00 0.00 0.00 76 1020.8
20260906080108 62 0.0 0.0 0.00 0.00 0.00 75 1020.5
20260906074616 61 0.0 0.0 0.00 0.00 0.00 77 1020.5
20260906073059 60 0.0 0.0 0.00 0.00 0.00 78 1020.4
20260906071600 60 0.0 0.0 0.00 0.00 0.00 80 1020.2
20260906070058 60 0.0 0.0 0.00 0.00 0.00 81 1020.0
20260906064554 59 0.0 0.0 0.00 0.00 0.00 81 1019.9
20260906063104 59 0.0 0.0 0.00 0.00 0.00 81 1019.8
20260906061609 59 0.0 0.0 0.00 0.00 0.00 82 1019.5
20260906060107 58 0.0 0.0 0.00 0.00 0.00 83 1019.4
20260906054606 58 0.0 0.0 0.00 0.00 0.00 82 1019.3
20260906053102 58 0.0 0.0 0.00 0.00 0.00 83 1019.1
20260906051604 58 0.0 0.0 0.00 0.00 0.00 83 1018.9
20260906044602 58 0.0 0.0 0.00 0.00 0.00 83 1018.6
20260906043102 58 0.0 0.0 0.00 0.00 0.00 83 1018.4
20260906041557 58 0.0 0.0 0.00 0.00 0.00 83 1018.1
20260906040058 58 0.0 0.0 0.00 0.00 0.00 82 1018.0
20260906034600 58 0.0 0.0 0.00 0.00 0.00 83 1017.5
20260906033101 58 0.0 0.0 0.00 0.00 0.00 83 1017.5
20260906031607 58 0.0 0.0 0.00 0.00 0.00 83 1017.2
20260906024558 58 0.0 0.0 0.00 0.00 0.00 82 1017.0
20260906023102 58 0.0 0.0 0.00 0.00 0.00 82 1017.0
20260906021607 58 0.0 0.0 0.00 0.00 0.00 82 1016.6
20260906020108 58 0.0 0.0 0.00 0.00 0.00 82 1016.4
20260906014602 58 0.0 0.0 0.00 0.00 0.00 82 1016.3
20260906013100 58 0.0 0.0 0.00 0.00 0.00 82 1016.2
20260906011558 58 0.0 0.0 0.00 0.00 0.00 82 1016.0
20260906010104 58 0.0 0.0 0.00 0.00 0.00 82 1015.7
20260906004556 59 0.0 0.0 0.00 0.00 0.00 81 1015.5
20260906003108 59 0.0 0.0 0.00 0.00 0.00 81 1015.3
20260906001605 59 0.0 0.0 0.00 0.00 0.00 81 1015.2
20260905234558 59 0.0 0.0 0.00 0.00 0.00 80 1014.8
20260905233105 59 0.0 0.0 0.00 0.00 0.00 80 1014.5
20260905231602 59 0.0 0.0 0.00 0.00 0.00 80 1014.4
20260905230100 59 0.0 0.0 0.00 0.00 0.00 80 1014.3
20260905224609 59 0.0 0.0 0.00 0.00 0.00 79 1014.2
20260905223055 59 0.0 0.0 0.00 0.00 0.00 79 1014.0
20260905221605 59 0.0 0.0 0.00 0.00 0.00 79 1013.7
20260905220108 59 0.0 0.0 0.00 0.00 0.00 80 1013.4
20260905214555 59 0.0 0.0 0.00 0.00 0.00 80 1013.2
20260905213102 59 0.0 0.0 0.00 0.00 0.00 79 1013.0
20260905211629 59 0.0 0.0 0.00 0.00 0.00 79 1012.7
20260905210124 59 0.0 0.0 0.00 0.00 0.00 79 1012.4
20260905204608 59 0.0 0.0 0.00 0.00 0.00 80 1012.2
20260905203118 59 0.0 0.0 0.00 0.00 0.00 79 1012.1
20260905201601 59 0.0 0.0 0.00 0.00 0.00 78 1011.7
20260905200107 59 0.0 0.0 0.00 0.00 0.00 78 1011.7
20260905194603 59 0.0 0.0 0.00 0.00 0.00 76 1011.8
20260905193057 59 0.0 0.0 0.00 0.00 0.00 76 1011.7
20260905191558 59 0.0 0.0 0.00 0.00 0.00 76 1011.5
20260905190105 58 0.0 0.0 0.00 0.00 0.00 79 1011.4
20260905184606 58 0.0 0.0 0.00 0.03 0.00 79 1011.3
20260905183100 59 0.0 0.0 0.00 0.03 0.00 79 1011.3
20260905181610 59 0.0 0.0 0.00 0.03 0.00 78 1011.0
20260905180109 60 0.0 0.0 0.00 0.03 0.00 75 1010.9
20260905174559 60 0.0 0.0 0.00 0.16 0.00 74 1010.8
20260905173103 61 0.0 0.0 0.00 0.16 0.00 73 1010.6
20260905171557 61 0.0 0.0 0.00 0.16 0.00 72 1010.4
20260905170107 62 0.0 0.0 0.00 0.16 0.00 72 1010.4
20260905164559 62 0.0 0.0 0.00 0.16 0.00 72 1010.3
20260905163108 62 0.0 0.0 0.00 0.16 0.00 72 1010.1
20260905161602 63 0.0 0.0 0.00 0.16 0.00 71 1009.9
20260905160135 63 0.0 0.0 0.00 0.16 0.00 69 1009.7
20260905154605 64 0.0 0.0 0.00 0.16 0.00 68 1009.6